Volver al catálogo

CZ-6A DEB

ActivoPO
NORAD 60808·DEBRIS·🇨🇳 China

Lanzado Aug 6, 2024 desde Taiyuan Satellite Launch Center

Loading…

Próximos Pases (próximas 24 horas)

TLE

ActualizadoSource: Space-Track

Época: Sep 14, 2026, 07:02 UTC

1 60808U 24140GK  26257.29349430  .00000342  00000-0  71990-4 0  9998
2 60808  89.0571 265.5981 0112550 315.6154  43.6073 14.53362787110842

Sigue CZ-6A DEB en tiempo real con AllMySat

Download on the App Store